This is the latest recevied weather packets stored in our database for station/object KE8ZLU. If no packets are shown the sender has not sent any weather packets the latest 10 day(s).
| Time | Temp. | Humidity | Pressure | Rain* | Wind** | Luminosity | Snow |
|---|---|---|---|---|---|---|---|
| 1777499664 | 8.89° C | 94% | 1012.3 hPa | 0 mm | - | 46 W/m² | - |
| 1777499361 | 9.44° C | 93% | 1011.9 hPa | 0 mm | - | 70 W/m² | - |
| 1777499060 | 9.44° C | 93% | 1011.9 hPa | 0 mm | - | 77 W/m² | - |
| 1777498755 | 9.44° C | 93% | 1012.1 hPa | 0 mm | - | 79 W/m² | - |
| 1777498452 | 9.44° C | 93% | 1012.3 hPa | 0 mm | - | 84 W/m² | - |
| 1777498149 | 9.44° C | 93% | 1012.1 hPa | 0 mm | - | 91 W/m² | - |
| 1777497846 | 9.44° C | 94% | 1012.1 hPa | 0 mm | - | 57 W/m² | - |
| 1777497542 | 9.44° C | 93% | 1012.1 hPa | 0 mm | - | 69 W/m² | - |
| 1777497238 | 9.44° C | 94% | 1012 hPa | 0 mm | - | 76 W/m² | - |
| 1777496935 | 9.44° C | 93% | 1011.9 hPa | 0 mm | - | 59 W/m² | - |
| 1777496632 | 9.44° C | 93% | 1012.2 hPa | 1.27 mm | - | 65 W/m² | - |
| 1777496329 | 9.44° C | 92% | 1012.1 hPa | 1.27 mm | - | 71 W/m² | - |
| 1777496024 | 9.44° C | 91% | 1012.1 hPa | 1.78 mm | - | 73 W/m² | - |
| 1777495721 | 9.44° C | 92% | 1012.3 hPa | 1.78 mm | - | 75 W/m² | - |
| 1777495417 | 9.44° C | 91% | 1012.2 hPa | 0 mm | - | 59 W/m² | - |
| 1777495113 | 9.44° C | 90% | 1012.2 hPa | 0 mm | - | 36 W/m² | - |
| 1777494811 | 10° C | 90% | 1012.3 hPa | 0 mm | - | 27 W/m² | - |
| 1777494508 | 10° C | 89% | 1012.2 hPa | 0 mm | - | 31 W/m² | - |
| 1777494205 | 10° C | 88% | 1012.2 hPa | 1.78 mm | - | 79 W/m² | - |
| 1777493902 | 10° C | 87% | 1012 hPa | 1.78 mm | - | 171 W/m² | - |
| 1777493600 | 10° C | 87% | 1012.1 hPa | 0 mm | - | 102 W/m² | - |
| 1777493297 | 10° C | 87% | 1012.1 hPa | 0 mm | - | 95 W/m² | - |
| 1777492994 | 10° C | 88% | 1012.2 hPa | 0 mm | - | 121 W/m² | - |
| 1777492690 | 10° C | 87% | 1012 hPa | 1.27 mm | - | 136 W/m² | - |
| 1777492390 | 10° C | 88% | 1012 hPa | 1.27 mm | - | 160 W/m² | - |
* Rain latest hour (hover to see other rain measurements)
** Current wind speed in m/s (hover to see current wind gust speed)